• In Moldova, Republic
  • List of Countries
  • For 7 days
  • Water Temperature
  • Satellite Maps
  • Weather Map
  • Weather Widgets
  • user-avatar
    Login

    Hourly Weather Jewłach

    Today, 26 July, Wednesday

    Time Temperature Precipitation Wind Pressure Humidity
    00:00 +29°C° 0.2 mm 2 mps 755 mmHg 42%
    01:00 +29°C° 0.3 mm 2 mps 755 mmHg 45%
    02:00 +28°C° 0.3 mm 2 mps 754 mmHg 47%
    03:00 +28°C° 0.3 mm 1 mps 754 mmHg 49%
    04:00 +28°C° 0 mm 1 mps 755 mmHg 48%
    05:00 +29°C° 0 mm 1 mps 755 mmHg 46%
    06:00 +29°C° 0 mm 1 mps 755 mmHg 45%
    07:00 +31°C° 0 mm 2 mps 755 mmHg 42%
    08:00 +32°C° 0 mm 2 mps 755 mmHg 38%
    09:00 +35°C° 0 mm 2 mps 754 mmHg 34%
    10:00 +36°C° 0 mm 2 mps 754 mmHg 33%
    11:00 +37°C° 0 mm 2 mps 754 mmHg 31%
    12:00 +38°C° 0 mm 2 mps 754 mmHg 30%
    13:00 +39°C° 0 mm 2 mps 754 mmHg 29%
    14:00 +39°C° 0 mm 2 mps 753 mmHg 28%
    15:00 +40°C° 0 mm 2 mps 753 mmHg 27%
    16:00 +40°C° 0.1 mm 3 mps 753 mmHg 28%
    17:00 +39°C° 0.1 mm 3 mps 754 mmHg 29%
    18:00 +39°C° 0.1 mm 3 mps 754 mmHg 29%
    19:00 +37°C° 0.1 mm 3 mps 754 mmHg 33%
    20:00 +35°C° 0.1 mm 4 mps 755 mmHg 37%
    21:00 +33°C° 0.1 mm 4 mps 755 mmHg 40%
    22:00 +32°C° 0 mm 4 mps 756 mmHg 42%
    23:00 +30°C° 0 mm 3 mps 756 mmHg 44%

    Tomorrow, 27 July, Thursday

    Time Temperature Precipitation Wind Pressure Humidity
    00:00 +30°C° 0 mm 3 mps 756 mmHg 47%
    01:00 +29°C° 0 mm 2 mps 756 mmHg 48%
    02:00 +29°C° 0 mm 2 mps 756 mmHg 49%
    03:00 +28°C° 0 mm 1 mps 757 mmHg 50%
    04:00 +29°C° 0 mm 1 mps 757 mmHg 49%
    05:00 +29°C° 0 mm 1 mps 757 mmHg 48%
    06:00 +29°C° 0 mm 1 mps 757 mmHg 47%
    07:00 +31°C° 0 mm 1 mps 757 mmHg 43%
    08:00 +33°C° 0 mm 1 mps 757 mmHg 39%
    09:00 +34°C° 0 mm 1 mps 757 mmHg 34%
    10:00 +36°C° 0 mm 2 mps 757 mmHg 32%
    11:00 +38°C° 0 mm 2 mps 756 mmHg 29%
    12:00 +39°C° 0 mm 2 mps 756 mmHg 27%
    13:00 +40°C° 0 mm 2 mps 756 mmHg 25%
    14:00 +42°C° 0 mm 3 mps 755 mmHg 24%
    15:00 +42°C° 0 mm 3 mps 755 mmHg 23%
    16:00 +42°C° 0 mm 3 mps 755 mmHg 23%
    17:00 +42°C° 0 mm 3 mps 755 mmHg 23%
    18:00 +40°C° 0 mm 3 mps 755 mmHg 24%
    19:00 +40°C° 0 mm 4 mps 756 mmHg 26%
    20:00 +37°C° 0 mm 4 mps 756 mmHg 29%
    21:00 +35°C° 0 mm 5 mps 757 mmHg 32%
    22:00 +34°C° 0 mm 4 mps 757 mmHg 33%
    23:00 +33°C° 0 mm 3 mps 757 mmHg 35%

    Day after tomorrow, 28 July, Friday

    Time Temperature Precipitation Wind Pressure Humidity
    00:00 +31°C° 0 mm 3 mps 757 mmHg 37%
    01:00 +30°C° 0 mm 2 mps 757 mmHg 38%
    02:00 +30°C° 0 mm 2 mps 757 mmHg 39%
    03:00 +30°C° 0 mm 2 mps 757 mmHg 39%
    04:00 +30°C° 0 mm 1 mps 757 mmHg 39%
    05:00 +30°C° 0 mm 1 mps 757 mmHg 39%
    06:00 +31°C° 0 mm 1 mps 757 mmHg 38%
    07:00 +32°C° 0 mm 1 mps 757 mmHg 35%
    08:00 +34°C° 0 mm 1 mps 756 mmHg 32%
    09:00 +37°C° 0 mm 2 mps 756 mmHg 28%
    10:00 +38°C° 0 mm 2 mps 756 mmHg 26%
    11:00 +40°C° 0 mm 1 mps 755 mmHg 24%
    12:00 +41°C° 0 mm 1 mps 755 mmHg 22%
    13:00 +42°C° 0 mm 1 mps 754 mmHg 21%
    14:00 +42°C° 0 mm 1 mps 754 mmHg 20%
    15:00 +43°C° 0 mm 2 mps 753 mmHg 19%
    16:00 +43°C° 0 mm 1 mps 753 mmHg 19%
    17:00 +43°C° 0 mm 1 mps 753 mmHg 20%
    18:00 +42°C° 0 mm 1 mps 753 mmHg 20%
    19:00 +40°C° 0 mm 2 mps 754 mmHg 22%
    20:00 +38°C° 0 mm 3 mps 754 mmHg 25%
    21:00 +36°C° 0 mm 3 mps 755 mmHg 27%
    22:00 +35°C° 0 mm 3 mps 755 mmHg 30%
    23:00 +34°C° 0 mm 3 mps 755 mmHg 33%

    29 July, Saturday

    Time Temperature Precipitation Wind Pressure Humidity
    00:00 +32°C° 0 mm 2 mps 755 mmHg 36%
    01:00 +31°C° 0 mm 2 mps 755 mmHg 38%
    02:00 +30°C° 0 mm 1 mps 755 mmHg 39%
    03:00 +30°C° 0 mm 1 mps 755 mmHg 41%
    04:00 +30°C° 0 mm 1 mps 755 mmHg 40%
    05:00 +31°C° 0 mm 2 mps 755 mmHg 38%
    06:00 +31°C° 0 mm 2 mps 756 mmHg 37%
    07:00 +35°C° 0 mm 3 mps 755 mmHg 32%
    08:00 +37°C° 0 mm 3 mps 755 mmHg 26%
    09:00 +40°C° 0 mm 4 mps 755 mmHg 21%
    10:00 +42°C° 0 mm 3 mps 755 mmHg 19%
    11:00 +43°C° 0 mm 3 mps 754 mmHg 17%
    12:00 +44°C° 0 mm 3 mps 754 mmHg 15%
    13:00 +45°C° 0 mm 3 mps 754 mmHg 15%
    14:00 +46°C° 0 mm 2 mps 753 mmHg 14%
    15:00 +46°C° 0 mm 2 mps 753 mmHg 14%
    16:00 +46°C° 0 mm 2 mps 753 mmHg 14%
    17:00 +45°C° 0 mm 1 mps 754 mmHg 15%
    18:00 +44°C° 0 mm 1 mps 754 mmHg 15%
    19:00 +42°C° 0 mm 2 mps 755 mmHg 18%
    20:00 +40°C° 0 mm 2 mps 755 mmHg 21%
    21:00 +37°C° 0 mm 3 mps 756 mmHg 23%
    22:00 +36°C° 0 mm 3 mps 757 mmHg 28%
    23:00 +35°C° 0 mm 3 mps 757 mmHg 33%

    30 July, Sunday

    Time Temperature Precipitation Wind Pressure Humidity
    00:00 +34°C° 0 mm 2 mps 758 mmHg 38%
    01:00 +33°C° 0 mm 3 mps 758 mmHg 40%
    02:00 +33°C° 0 mm 4 mps 758 mmHg 41%
    03:00 +33°C° 0 mm 4 mps 758 mmHg 43%
    04:00 +33°C° 0 mm 4 mps 759 mmHg 43%
    05:00 +33°C° 0 mm 4 mps 759 mmHg 43%
    06:00 +33°C° 0 mm 5 mps 759 mmHg 43%
    07:00 +35°C° 0 mm 4 mps 759 mmHg 38%
    08:00 +36°C° 0 mm 4 mps 759 mmHg 33%
    09:00 +38°C° 0 mm 4 mps 759 mmHg 29%
    10:00 +39°C° 0 mm 3 mps 759 mmHg 27%
    11:00 +40°C° 0 mm 3 mps 759 mmHg 25%
    12:00 +41°C° 0 mm 2 mps 759 mmHg 23%
    13:00 +42°C° 0 mm 2 mps 758 mmHg 22%
    14:00 +44°C° 0 mm 3 mps 758 mmHg 21%
    15:00 +44°C° 0 mm 3 mps 758 mmHg 20%
    16:00 +44°C° 0 mm 4 mps 758 mmHg 21%
    17:00 +43°C° 0 mm 5 mps 758 mmHg 22%
    18:00 +44°C° 0 mm 6 mps 758 mmHg 23%
    19:00 +40°C° 0.1 mm 6 mps 759 mmHg 29%
    20:00 +38°C° 0.1 mm 7 mps 760 mmHg 36%
    21:00 +35°C° 0.1 mm 7 mps 760 mmHg 42%
    22:00 +34°C° 0.1 mm 6 mps 761 mmHg 45%
    23:00 +33°C° 0.1 mm 5 mps 761 mmHg 48%

    31 July, Monday

    Time Temperature Precipitation Wind Pressure Humidity
    00:00 +32°C° 0.1 mm 4 mps 761 mmHg 51%
    01:00 +30°C° 0 mm 3 mps 761 mmHg 52%
    02:00 +30°C° 0 mm 3 mps 761 mmHg 53%
    03:00 +29°C° 0 mm 3 mps 761 mmHg 53%
    04:00 +30°C° 0 mm 3 mps 762 mmHg 52%
    05:00 +30°C° 0 mm 2 mps 762 mmHg 51%
    06:00 +30°C° 0 mm 2 mps 762 mmHg 49%
    07:00 +33°C° 0 mm 3 mps 762 mmHg 44%
    08:00 +35°C° 0 mm 4 mps 762 mmHg 39%
    09:00 +37°C° 0 mm 4 mps 762 mmHg 34%
    10:00 +38°C° 0 mm 4 mps 762 mmHg 32%
    11:00 +40°C° 0 mm 5 mps 761 mmHg 29%
    12:00 +41°C° 0 mm 5 mps 761 mmHg 27%
    13:00 +41°C° 0 mm 5 mps 761 mmHg 26%
    14:00 +42°C° 0 mm 5 mps 760 mmHg 25%
    15:00 +42°C° 0 mm 5 mps 760 mmHg 24%
    16:00 +42°C° 0 mm 6 mps 760 mmHg 25%
    17:00 +41°C° 0 mm 7 mps 760 mmHg 26%
    18:00 +40°C° 0 mm 7 mps 761 mmHg 27%
    19:00 +38°C° 0 mm 7 mps 761 mmHg 30%
    20:00 +35°C° 0 mm 7 mps 762 mmHg 34%
    21:00 +33°C° 0 mm 6 mps 762 mmHg 38%
    22:00 +32°C° 0 mm 5 mps 763 mmHg 40%
    23:00 +30°C° 0 mm 4 mps 763 mmHg 42%
    Show more